Starlink 1265

operational
NORAD ID: 45406 Int'l Des: 2020-019 Owner: SPXS Country: US Constellation: starlink
LEOCIRCULARSTARLINK_TYPE

Über Starlink 1265

Beschreibung wird geladen...

Live-Position

3D-Globus wird geladen...

Nächste Überflüge

Höhenverlauf

Altitude vs Time

uPlot chart will show altitude changes over time

Zweizeiliger Elementsatz

1 45406U 20019AY 25351.70477376 .00000216 00000-0 33390-4 0 9999
2 45406 53.0540 144.6644 0001314 92.3282 267.7857 15.06400849317507
Epoch: 17. Dez. 2025 • Age: 24 hours

Aktueller Status

Höhe 552.7 km
Geschwindigkeit 7.59 km/s
Subsatellitenpunkt 52.49°N, 102.91°W
Startdatum 18. März 2020
Alter 5.7 years
Typ internet

Technische Details

Klassifizierung Payload
Masse 260.00 kg
Trockenmasse 248.00 kg
Gesamtmasse 260.00 kg
Länge 0.20 m
Durchmesser 2.80 m
Spannweite 9.00 m
Form Box + pan
Hersteller SPXS
Bus-Typ Starlink
Phasenstatus In Orbit
Besitzer/Staat SPXS/US

Große Konstellationen

Loading constellations...